Location: Beaurecueil
(43.5122°N, 5.5450°E)
Time: 19:48:00
(UTC+00:00)

OBJECT-B - Pass Details

Date: 18 September 2020
Orbit: 421 x 433 km, 97.0° (Epoch: 09 October)

Event Time Altitude Azimuth Distance (km) Brightness Sun altitude
Exits shadow 19:01:25 19° 54° (NE) 1,084 2.5 -15.0°
Drops below altitude 10° 19:03:16 10° 21° (NNE) 1,519 3.5 -15.3°
Sets 19:05:38 0° 4° (N) 2,391 4.8 -15.7°
